User: anonymous   Login
Location: Unspecified
(0.0000°N, 0.0000°E)
Time: 13:22:54
(UTC+01:00)
Language:

H-2A R/B - Orbit

View from above orbital plane
View from above orbital plane
View from above satellite
View from above satellite

Ground track
Ground track

The orbit data is extracted from the following two-line orbital elements,

1 26899U 01038B   17056.57843038  .00001031  00000-0  24020-3 0  9999
2 26899  27.9143 110.6029 7131609 114.2086 332.2444  2.47495198133750
Epoch (UTC): 25 February 2017 13:52:56
Eccentricity: 0.7131609
inclination: 27.9143°
perigee height: 244 km
apogee height: 33172 km
right ascension of ascending node: 110.6029°
argument of perigee: 114.2086°
revolutions per day: 2.47495198
mean anomaly at epoch: 332.2444°
orbit number at epoch: 13375

The dashed part of the orbit path shows where the satellite is in the earth's shadow,  

DLR